Hourly Weather Godziszka

Today, 2 December, Wednesday

Time Temperature Precipitation Wind Pressure Humidity
00:00 -3°C° 0 mm 1 mps 723 mmHg 83%
01:00 -4°C° 0 mm 1 mps 723 mmHg 85%
02:00 -4°C° 0 mm 1 mps 723 mmHg 85%
03:00 -4°C° 0 mm 1 mps 723 mmHg 85%
04:00 -5°C° 0 mm 0 mps 723 mmHg 85%
05:00 -4°C° 0 mm 1 mps 723 mmHg 84%
06:00 -4°C° 0 mm 1 mps 723 mmHg 83%
07:00 -6°C° 0 mm 1 mps 723 mmHg 83%
08:00 -3°C° 0 mm 1 mps 723 mmHg 76%
09:00 -2°C° 0 mm 1 mps 723 mmHg 69%
10:00 -1°C° 0 mm 1 mps 723 mmHg 63%
11:00 0°C° 0 mm 1 mps 723 mmHg 61%
12:00 0°C° 0 mm 1 mps 722 mmHg 58%
13:00 +1°C° 0 mm 1 mps 722 mmHg 56%
14:00 0°C° 0 mm 1 mps 721 mmHg 62%
15:00 -1°C° 0 mm 1 mps 721 mmHg 68%
16:00 -3°C° 0 mm 1 mps 720 mmHg 75%
17:00 -3°C° 0 mm 1 mps 720 mmHg 72%
18:00 -2°C° 0 mm 1 mps 720 mmHg 69%
19:00 -2°C° 0 mm 1 mps 720 mmHg 66%
20:00 -2°C° 0 mm 1 mps 720 mmHg 65%
21:00 -3°C° 0 mm 1 mps 719 mmHg 63%
22:00 -3°C° 0 mm 1 mps 719 mmHg 62%
23:00 -2°C° 0 mm 1 mps 719 mmHg 62%

Tomorrow, 3 December, Thursday

Time Temperature Precipitation Wind Pressure Humidity
00:00 -2°C° 0 mm 1 mps 718 mmHg 61%
01:00 -2°C° 0 mm 1 mps 718 mmHg 61%
02:00 -2°C° 0 mm 1 mps 718 mmHg 60%
03:00 -2°C° 0 mm 1 mps 717 mmHg 59%
04:00 -1°C° 0 mm 1 mps 717 mmHg 58%
05:00 -1°C° 0 mm 1 mps 717 mmHg 58%
06:00 -1°C° 0 mm 1 mps 716 mmHg 57%
07:00 -1°C° 0 mm 1 mps 716 mmHg 57%
08:00 0°C° 0 mm 1 mps 716 mmHg 57%
09:00 +1°C° 0 mm 1 mps 716 mmHg 58%
10:00 +2°C° 0 mm 1 mps 716 mmHg 58%
11:00 +2°C° 0 mm 1 mps 716 mmHg 61%
12:00 +3°C° 0 mm 1 mps 715 mmHg 63%
13:00 +3°C° 0 mm 1 mps 715 mmHg 65%
14:00 +2°C° 0 mm 1 mps 715 mmHg 70%
15:00 +2°C° 0 mm 1 mps 714 mmHg 75%
16:00 +1°C° 0 mm 1 mps 714 mmHg 79%
17:00 +1°C° 0 mm 1 mps 714 mmHg 82%
18:00 +1°C° 0 mm 1 mps 713 mmHg 84%
19:00 +1°C° 0 mm 1 mps 713 mmHg 86%
20:00 +1°C° 0 mm 1 mps 713 mmHg 87%
21:00 +2°C° 0 mm 1 mps 713 mmHg 87%
22:00 +1°C° 0 mm 2 mps 712 mmHg 88%
23:00 +1°C° 0 mm 2 mps 712 mmHg 89%

Day after tomorrow, 4 December, Friday

Time Temperature Precipitation Wind Pressure Humidity
00:00 +1°C° 0 mm 2 mps 712 mmHg 89%
01:00 +2°C° 0 mm 2 mps 711 mmHg 90%
02:00 +2°C° 0 mm 2 mps 711 mmHg 90%
03:00 +2°C° 0 mm 2 mps 710 mmHg 91%
04:00 +2°C° 0 mm 2 mps 710 mmHg 91%
05:00 +2°C° 0 mm 2 mps 710 mmHg 91%
06:00 +1°C° 0 mm 2 mps 710 mmHg 91%
07:00 +1°C° 0 mm 2 mps 710 mmHg 91%
08:00 +2°C° 0 mm 2 mps 710 mmHg 88%
09:00 +2°C° 0 mm 3 mps 710 mmHg 86%
10:00 +3°C° 0 mm 3 mps 710 mmHg 83%
11:00 +4°C° 0 mm 3 mps 709 mmHg 81%
12:00 +4°C° 0 mm 3 mps 709 mmHg 80%
13:00 +6°C° 0 mm 2 mps 709 mmHg 78%
14:00 +4°C° 0 mm 3 mps 709 mmHg 81%
15:00 +3°C° 0 mm 3 mps 709 mmHg 84%
16:00 +2°C° 0 mm 3 mps 709 mmHg 88%
17:00 +2°C° 0 mm 3 mps 710 mmHg 88%
18:00 +1°C° 0 mm 3 mps 710 mmHg 88%
19:00 +1°C° 0 mm 3 mps 710 mmHg 88%
20:00 +1°C° 0 mm 3 mps 710 mmHg 89%
21:00 +1°C° 0 mm 3 mps 710 mmHg 89%
22:00 +1°C° 0 mm 3 mps 710 mmHg 89%
23:00 +2°C° 0 mm 2 mps 711 mmHg 90%

5 December, Saturday

Time Temperature Precipitation Wind Pressure Humidity
00:00 +2°C° 0 mm 2 mps 711 mmHg 90%
01:00 +2°C° 0 mm 2 mps 711 mmHg 90%
02:00 +1°C° 0 mm 2 mps 711 mmHg 90%
03:00 +1°C° 0 mm 2 mps 711 mmHg 90%
04:00 +1°C° 0 mm 2 mps 711 mmHg 90%
05:00 +2°C° 0 mm 2 mps 711 mmHg 90%
06:00 +1°C° 0 mm 3 mps 711 mmHg 90%
07:00 +1°C° 0 mm 3 mps 712 mmHg 89%
08:00 +2°C° 0 mm 3 mps 712 mmHg 88%
09:00 +3°C° 0 mm 3 mps 712 mmHg 86%
10:00 +4°C° 0 mm 3 mps 712 mmHg 84%
11:00 +5°C° 0 mm 3 mps 712 mmHg 83%
12:00 +5°C° 0 mm 3 mps 712 mmHg 82%
13:00 +7°C° 0 mm 3 mps 712 mmHg 81%
14:00 +5°C° 0 mm 3 mps 712 mmHg 84%
15:00 +4°C° 0 mm 3 mps 712 mmHg 86%
16:00 +4°C° 0 mm 3 mps 712 mmHg 88%
17:00 +3°C° 0 mm 3 mps 712 mmHg 88%
18:00 +3°C° 0 mm 3 mps 712 mmHg 89%
19:00 +3°C° 0 mm 3 mps 712 mmHg 89%
20:00 +3°C° 0 mm 3 mps 712 mmHg 89%
21:00 +3°C° 0 mm 3 mps 712 mmHg 89%
22:00 +3°C° 0 mm 3 mps 712 mmHg 89%
23:00 +3°C° 0 mm 3 mps 712 mmHg 89%

6 December, Sunday

Time Temperature Precipitation Wind Pressure Humidity
00:00 +3°C° 0 mm 3 mps 712 mmHg 89%
01:00 +3°C° 0 mm 3 mps 712 mmHg 89%
02:00 +3°C° 0 mm 3 mps 712 mmHg 89%
03:00 +3°C° 0 mm 3 mps 712 mmHg 89%
04:00 +3°C° 0 mm 3 mps 712 mmHg 89%
05:00 +3°C° 0 mm 3 mps 712 mmHg 89%
06:00 +3°C° 0 mm 3 mps 712 mmHg 89%
07:00 +3°C° 0 mm 3 mps 712 mmHg 89%
08:00 +4°C° 0 mm 3 mps 712 mmHg 86%
09:00 +5°C° 0 mm 3 mps 712 mmHg 84%
10:00 +6°C° 0 mm 2 mps 712 mmHg 82%
11:00 +7°C° 0 mm 3 mps 711 mmHg 81%
12:00 +7°C° 0 mm 3 mps 711 mmHg 80%
13:00 +8°C° 0 mm 3 mps 711 mmHg 79%
14:00 +7°C° 0 mm 3 mps 710 mmHg 81%
15:00 +5°C° 0 mm 3 mps 710 mmHg 83%
16:00 +4°C° 0 mm 3 mps 709 mmHg 85%
17:00 +4°C° 0 mm 3 mps 709 mmHg 85%
18:00 +4°C° 0 mm 3 mps 709 mmHg 85%
19:00 +4°C° 0 mm 3 mps 709 mmHg 85%
20:00 +4°C° 0.1 mm 3 mps 709 mmHg 86%
21:00 +4°C° 0.1 mm 3 mps 709 mmHg 87%
22:00 +4°C° 0.1 mm 3 mps 709 mmHg 88%
23:00 +5°C° 0.1 mm 2 mps 709 mmHg 88%

7 December, Monday

Time Temperature Precipitation Wind Pressure Humidity
00:00 +5°C° 0.1 mm 2 mps 709 mmHg 89%
01:00 +5°C° 0.1 mm 2 mps 709 mmHg 89%
02:00 +5°C° 0.1 mm 2 mps 709 mmHg 90%
03:00 +5°C° 0.1 mm 2 mps 709 mmHg 90%
04:00 +5°C° 0.1 mm 2 mps 709 mmHg 90%
05:00 +5°C° 0 mm 2 mps 709 mmHg 91%
06:00 +5°C° 0 mm 2 mps 710 mmHg 91%
07:00 +4°C° 0 mm 2 mps 710 mmHg 91%
08:00 +6°C° 0 mm 1 mps 710 mmHg 90%
09:00 +6°C° 0 mm 1 mps 710 mmHg 89%
10:00 +7°C° 0 mm 1 mps 711 mmHg 89%
11:00 +7°C° 0 mm 1 mps 711 mmHg 87%
12:00 +7°C° 0 mm 1 mps 711 mmHg 85%
13:00 +8°C° 0 mm 1 mps 711 mmHg 83%
14:00 +7°C° 0 mm 1 mps 711 mmHg 85%
15:00 +6°C° 0 mm 1 mps 711 mmHg 88%
16:00 +4°C° 0 mm 0 mps 711 mmHg 91%
17:00 +4°C° 0 mm 1 mps 712 mmHg 91%
18:00 +4°C° 0 mm 1 mps 712 mmHg 91%
19:00 +3°C° 0 mm 1 mps 712 mmHg 91%
20:00 +3°C° 0 mm 1 mps 712 mmHg 91%
21:00 +3°C° 0 mm 1 mps 713 mmHg 91%
22:00 +2°C° 0 mm 1 mps 713 mmHg 90%
23:00 +2°C° 0 mm 1 mps 713 mmHg 90%
Show more

We Need Your Consent

Meteoprog and our Service Providers may store and access personal data such as cookies, device identifiers or other similar technologies on your device and process such data to personalise content and ads, as well as provide social media features and to analyse the traffic.

  • Store and/or access information on your device

    Cookies, device identifiers or other information can be stored or accessed on your device for the purposes indicated above.

  • Personalised ads and content, ad and content measurement, audience insights, and products development

    Ads and content can be personalised based on a profile. More data can be added to better personalise ads and content. Ad and content performance can be measured. Insights about the audience who saw the ads and content can be derived. Such data can be used to develop or improve user’s experience, systems and software.

By clicking ‘I Agree’ you will allow the use of indicated cookies, device identifiers, web beacons or other similar technologies. Your settings can be changed in the browser on your device.

For certain purposes, legitimate interests may be relied on, rather than consent. You can read more about this in our Privacy and Cookie Policy.